Location: Unspecified
(48.1170°N, 0.0000°E)
Time: 10:50:41
(UTC+00:00)

OTV 5 (USA 277) - Visible Passes

Search period start: 16 June 2019 00:00
Search period end: 26 June 2019 00:00
Orbit: 310 x 325 km, 54.5° (Epoch: 08 May)

Date Brightness Start Highest point End Pass type
(mag) Time Alt. Az. Time Alt. Az. Time Alt. Az.
16 Jun ? 01:12:16 22° W 01:13:39 40° NNW 01:16:19 10° NE visible
16 Jun ? 02:46:17 10° NW 02:48:29 21° N 02:50:41 10° NE visible
16 Jun ? 23:54:56 37° ENE 23:54:56 37° ENE 23:56:47 10° ENE visible
17 Jun ? 01:26:08 10° WNW 01:28:34 27° NNW 01:31:00 10° NE visible
17 Jun ? 03:01:15 10° NW 03:03:29 21° N 03:05:44 10° ENE visible
18 Jun ? 00:08:18 46° WNW 00:08:48 55° NNW 00:11:32 10° NE visible
18 Jun ? 01:41:18 10° WNW 01:43:33 22° N 01:45:48 10° NE visible
18 Jun ? 03:16:03 10° NW 03:18:28 26° NNE 03:20:53 10° ENE visible
18 Jun ? 22:50:36 23° E 22:50:36 23° E 22:51:54 10° ENE visible
19 Jun ? 00:21:24 12° W 00:23:39 32° NNW 00:26:12 10° NE visible
19 Jun ? 01:56:20 10° NW 01:58:32 21° N 02:00:44 10° NE visible
19 Jun ? 23:03:08 41° WSW 23:03:56 79° NNW 23:06:43 10° ENE visible
20 Jun ? 00:36:16 10° WNW 00:38:36 23° N 00:40:55 10° NE visible
20 Jun ? 02:11:12 10° NW 02:13:32 23° N 02:15:51 10° ENE visible
20 Jun ? 21:42:46 15° SSW 21:44:29 29° SE 21:46:57 10° ENE visible
20 Jun ? 23:16:06 10° W 23:18:46 40° NNW 23:21:24 10° NE visible
21 Jun ? 00:51:23 10° NW 00:53:35 21° N 00:55:48 10° NE visible
21 Jun ? 02:25:56 10° NW 02:28:29 32° NNE 02:31:01 10° E visible
21 Jun ? 21:56:22 10° SW 21:59:08 69° SE 22:01:53 10° ENE visible
21 Jun ? 23:31:14 10° WNW 23:33:40 27° NNW 23:36:06 10° NE visible
22 Jun ? 01:06:20 10° NW 01:08:35 22° N 01:10:51 10° ENE visible
22 Jun ? 02:40:37 10° NW 02:43:20 54° NNE 02:46:03 10° ESE visible
22 Jun ? 22:11:09 10° WSW 22:13:53 54° NNW 22:16:37 10° NE visible
22 Jun ? 23:46:23 10° WNW 23:48:38 22° N 23:50:54 10° NE visible
23 Jun ? 01:21:08 10° NW 01:23:34 27° NNE 01:25:59 10° ENE visible
23 Jun ? 02:55:21 10° WNW 02:58:06 69° SSW 03:00:50 10° SE visible
23 Jun ? 20:51:41 10° SW 20:54:20 44° SE 20:57:01 10° ENE visible
23 Jun ? 22:26:12 10° W 22:28:45 32° NNW 22:31:18 10° NE visible
24 Jun ? 00:01:25 10° NW 00:03:38 21° N 00:05:51 10° NE visible
24 Jun ? 01:35:49 10° NW 01:38:28 40° NNE 01:41:07 10° E visible
24 Jun ? 03:10:17 10° WNW 03:12:44 28° SW 03:15:10 10° SSE visible
24 Jun ? 21:06:16 10° WSW 21:09:02 78° NNW 21:11:49 10° ENE visible
24 Jun ? 22:41:22 10° WNW 22:43:41 23° N 22:46:02 10° NE visible
25 Jun ? 00:16:18 10° NW 00:18:38 23° N 00:20:57 10° ENE visible
25 Jun ? 01:50:31 10° WNW 01:53:17 80° NNE 01:56:02 10° ESE visible
25 Jun ? 21:21:12 10° W 21:23:51 40° NNW 21:26:30 10° NE visible
25 Jun ? 22:56:28 10° NW 22:58:41 21° N 23:00:54 10° NE visible
